Location: Lone Pine Community Mobile Home Park
(42.7367°N, 73.8567°W)
Time: 05:12:12
(UTC+00:00)

Aureole 3 - Pass Details

Date: 29 October 2020
Orbit: 382 x 1231 km, 82.5° (Epoch: 29 November)

Event Time Altitude Azimuth Distance (km) Brightness Sun altitude
Rises 22:31:54 0° 178° (S) 2,403 6.7 -8.0°
Reaches altitude 10° 22:34:02 10° 174° (S) 1,475 5.6 -8.4°
Maximum altitude 22:37:04 54° 96° (E) 480 2.7 -9.0°
Drops below altitude 10° 22:39:59 10° 17° (NNE) 1,414 5.2 -9.5°
Sets 22:41:59 0° 13° (NNE) 2,288 6.3 -9.9°
